Simultaneous Nadir Overpasses (SNOs) Predictions

Prediction of SNOs between NOAA-15 and METOP-C Satellite Orbit:

Table of predicted SNOs for the next 14.0 days since TLE Epoch: 3/8/2019
Index Date (NOAA-15) Time (NOAA-15) Lat,Lon (NOAA-15) SZA (NOAA-15 ) Date (METOP-C) Time (METOP-C) Lat,Lon (METOP-C) SZA (METOP-C ) Distance(km) Time Diff (sec)
1 03/18/2019 11:23:37 -80.76,-138.19 97.02 03/18/2019 11:22:27 -80.77,-138.14 97.04 1.25 70
2 03/18/2019 12:14:12 80.76, 29.21 82.97 03/18/2019 12:13:08 80.77, 29.18 82.95 1.31 64
3 03/18/2019 13:04:40 -80.77,-163.51 97.05 03/18/2019 13:03:49 -80.77,-163.61 97.08 1.75 51
4 03/18/2019 13:55:15 80.77, 3.88 82.94 03/18/2019 13:54:30 80.76, 3.72 82.91 2.90 45
5 03/18/2019 14:45:43 -80.77, 171.16 97.08 03/18/2019 14:45:10 -80.78, 171.27 97.08 2.15 33
6 03/18/2019 15:36:18 80.77, -21.45 82.91 03/18/2019 15:35:51 80.78, -21.40 82.91 1.32 27
7 03/18/2019 16:26:46 -80.77, 145.83 97.11 03/18/2019 16:26:32 -80.77, 145.80 97.12 0.66 14
8 03/18/2019 17:17:21 80.77, -46.79 82.88 03/18/2019 17:17:13 80.77, -46.87 82.87 1.53 8
9 03/18/2019 18:07:49 -80.78, 120.50 97.14 03/18/2019 18:07:53 -80.78, 120.68 97.12 3.32 4
10 03/18/2019 18:58:24 80.78, -72.12 82.85 03/18/2019 18:58:34 80.78, -71.99 82.87 2.42 10
11 03/18/2019 19:48:52 -80.78, 95.17 97.17 03/18/2019 19:49:15 -80.78, 95.22 97.17 1.06 23
12 03/18/2019 20:39:27 80.78, -97.45 82.82 03/18/2019 20:39:56 80.78, -97.45 82.83 0.57 29
13 03/18/2019 21:29:55 -80.79, 69.84 97.20 03/18/2019 21:30:37 -80.77, 69.75 97.21 2.55 42
14 03/18/2019 22:20:30 80.78,-122.78 82.79 03/18/2019 22:21:18 80.77,-122.92 82.78 3.10 48
15 03/18/2019 23:10:58 -80.79, 44.51 97.23 03/18/2019 23:11:58 -80.78, 44.63 97.21 2.27 60
16 03/19/2019 00:01:33 80.79,-148.11 82.76 03/19/2019 00:02:39 80.78,-148.04 82.78 1.54 66




NCC Satellite Simultaneous Nadir Overpasses (SNOs) Prediction Service
